This is the latest recevied weather packets stored in our database for station/object KG4LKY-5. If no packets are shown the sender has not sent any weather packets the latest 10 day(s).
| Time | Temp. | Humidity | Pressure | Rain* | Wind** | Luminosity | Snow |
|---|---|---|---|---|---|---|---|
| 1777680976 | 13.33° C | 53% | 1014.6 hPa | 0.25 mm | - | - | - |
| 1777680676 | 12.78° C | 55% | 1014.6 hPa | 0.25 mm | - | - | - |
| 1777680075 | 13.89° C | 51% | 1014.5 hPa | 0.25 mm | - | - | - |
| 1777679475 | 13.89° C | 52% | 1014.3 hPa | 0.25 mm | - | - | - |
| 1777678874 | 13.89° C | 49% | 1014 hPa | 0.25 mm | - | - | - |
| 1777678574 | 13.89° C | 48% | 1014.1 hPa | 0.25 mm | - | - | - |
| 1777678273 | 14.44° C | 47% | 1014 hPa | 0.25 mm | - | - | - |
| 1777677973 | 15° C | 48% | 1014 hPa | 0.25 mm | - | - | - |
| 1777677673 | 15° C | 48% | 1013.9 hPa | 0.25 mm | - | - | - |
| 1777677372 | 14.44° C | 47% | 1014 hPa | 0.25 mm | - | - | - |
| 1777677072 | 15° C | 48% | 1013.9 hPa | 0.25 mm | - | - | - |
| 1777676772 | 14.44° C | 47% | 1013.9 hPa | 0.25 mm | - | - | - |
| 1777676472 | 14.44° C | 47% | 1014 hPa | 0.25 mm | - | - | - |
| 1777676171 | 15° C | 47% | 1013.9 hPa | 0.25 mm | - | - | - |
| 1777675871 | 13.89° C | 49% | 1013.9 hPa | 0.25 mm | - | - | - |
| 1777675571 | 15° C | 49% | 1013.9 hPa | 0.25 mm | - | - | - |
| 1777675271 | 15.56° C | 48% | 1013.8 hPa | 0.25 mm | - | - | - |
| 1777674971 | 16.11° C | 49% | 1013.8 hPa | 0.25 mm | - | - | - |
| 1777674386 | 16.67° C | 54% | 1013.9 hPa | 0.25 mm | - | - | - |
| 1777674070 | 16.11° C | 52% | 1013.9 hPa | 0.25 mm | - | - | - |
| 1777673769 | 15.56° C | 55% | 1013.9 hPa | 0.25 mm | - | - | - |
| 1777673468 | 15.56° C | 53% | 1013.8 hPa | 0.25 mm | - | - | - |
| 1777673168 | 16.11° C | 55% | 1013.8 hPa | 0.25 mm | - | - | - |
| 1777672868 | 16.11° C | 55% | 1013.8 hPa | 0.25 mm | - | - | - |
| 1777672567 | 16.11° C | 55% | 1014 hPa | 0.25 mm | - | - | - |
* Rain since midnight (hover to see other rain measurements)
** Current wind speed in m/s (hover to see current wind gust speed)